Location: Dresden
(51.0500°N, 13.7500°E)
Time: 18:42:26
(UTC+00:00)

ISS - Visible Passes

Search period start: 22 July 2018 00:00
Search period end: 01 August 2018 00:00
Orbit: 402 x 408 km, 51.6° (Epoch: 22 July)

Date Brightness Start Highest point End Pass type
(mag) Time Alt. Az. Time Alt. Az. Time Alt. Az.
22 Jul -4.0 00:08:23 10° W 00:11:40 71° SSW 00:14:58 10° ESE visible
22 Jul -2.5 01:45:14 10° W 01:47:48 21° SW 01:50:21 10° SSE visible
22 Jul -3.3 20:03:36 10° SW 20:06:40 37° SSE 20:09:44 10° E visible
22 Jul -3.9 21:39:42 10° W 21:43:01 86° N 21:46:18 10° E visible
22 Jul -3.9 23:16:16 10° W 23:19:34 88° S 23:20:52 34° ESE visible
23 Jul -1.5 00:52:53 10° W 00:53:22 13° W 00:53:22 13° W visible
23 Jul -3.9 20:47:35 10° WSW 20:50:52 80° SSE 20:54:10 10° E visible
23 Jul -3.8 22:24:07 10° W 22:27:25 81° N 22:29:10 25° E visible
24 Jul -1.9 00:00:39 10° W 00:01:46 19° W 00:01:46 19° W visible
24 Jul -3.8 19:55:31 10° WSW 19:58:46 61° SSE 20:02:01 10° E visible
24 Jul -3.7 21:31:57 10° W 21:35:15 78° N 21:38:10 13° E visible
24 Jul -3.0 23:08:29 10° W 23:10:47 40° W 23:10:47 40° W visible
25 Jul -3.8 20:39:47 10° W 20:43:04 82° N 20:46:22 10° E visible
25 Jul -4.0 22:16:19 10° W 22:19:37 83° SSW 22:20:01 66° ESE visible
26 Jul -3.8 19:47:36 10° WSW 19:50:53 86° S 19:54:11 10° E visible
26 Jul -3.8 21:24:09 10° W 21:27:27 84° N 21:29:20 23° E visible
26 Jul -1.9 23:00:42 10° W 23:01:57 20° W 23:01:57 20° W visible
27 Jul -3.7 20:31:57 10° W 20:35:15 78° N 20:38:32 10° E visible
27 Jul -3.5 22:08:28 10° W 22:11:19 52° SW 22:11:19 52° SW visible
28 Jul -3.7 19:39:44 10° W 19:43:01 80° N 19:46:19 10° E visible
28 Jul -3.9 21:16:17 10° W 21:19:33 76° SSW 21:20:43 37° ESE visible
28 Jul -1.2 22:53:02 10° W 22:53:21 12° W 22:53:21 12° W visible
29 Jul -3.9 20:24:04 10° W 20:27:22 88° NNE 20:30:09 14° E visible
29 Jul -2.5 22:00:39 10° W 22:02:47 28° WSW 22:02:47 28° WSW visible
30 Jul -3.7 19:31:50 10° W 19:35:07 79° N 19:38:24 10° E visible
30 Jul -3.6 21:08:21 10° W 21:11:33 50° SSW 21:12:14 41° SSE visible
31 Jul -3.8 20:16:06 10° W 20:19:22 69° SSW 20:21:42 18° ESE visible
31 Jul -1.7 21:53:00 10° W 21:54:21 17° WSW 21:54:21 17° WSW visible
